Japanese version Home page |
Updated on March 17, 2010 |
Profile
|
Orbital ElementsEpoch 2002 May 6.0 TT = JDT 2452400.5 T 2002 May 20.36281 TT MPC q 8.5642451 (2000.0) P Q n 0.01899415 Peri. 321.84039 +0.87623594 -0.41836796 a 13.9119978 Node 64.50151 +0.48094095 +0.72825562 e 0.3843986 Incl. 15.36253 +0.03010619 +0.54278172 P 51.89
|
Finding Charts
|
Magnitudes Graphm1 = 5.5 + 5 log d + 10.0 log r
|
The orbital elements are published on M.P.E.C. 2002-S06.
|